RH
30 33 35 43 64 65 63 59 96 79 60 75 81 87 85 98 95 94 87 82 80 81 80 77 79 76 86 80 71 54 80 94 88 85 81 86 87 84 81 79 86 90 81
56 43 42 41 39 42 53 61 63 92 54 62 70 76 73 83 80 82 87 86 86 82 80 57 52 71 80 81 59 46 85 95 85 88 84 87 84 89 84 80 85 87 82
63 72 57 48 39 37 32 33 53 83 83 52 70 87 76 81 92 99 93 92 91 85 86 62 45 58 67 66 61 48 68 80 87 82 81 85 77 78 86 80 80 86 96
85 86 89 82 66 58 46 36 35 68 98 58 69 82 72 76 87 79 80 88 95 90 89 80 59 59 60 66 64 53 74 85 87 82 85 79 75 79 85 82 74 81 81
96 97 100 100 92 79 76 56 39 45 92 83 76 94 76 73 74 76 78 82 99 97 92 93 75 68 65 67 64 53 92 95 95 84 85 83 82 72 78 73 93 73 80
100 100 100 99 100 97 93 84 63 81 100 99 98 99 97 84 86 82 82 81 98 100 99 96 90 83 72 71 70 62 56 89 96 91 90 79 80 86 84 77 81 85 90
99 100 100 100 100 100 100 100 100 100 99 100 98 99 98 98 90 70 67 76 92 100 99 97 100 88 82 84 86 82 68 63 88 92 88 77 84 85 85 78 73 75 81
97 100 100 100 100 100 100 99 99 100 100 100 100 98 98 97 98 76 70 77 84 83 90 97 100 98 90 92 91 91 87 74 69 76 75 80 84 92 85 86 83 86 84
95 97 95 100 100 100 100 100 100 100 100 99 99 99 95 94 99 100 86 78 72 76 84 87 95 98 97 90 92 92 90 91 79 77 82 88 82 88 87 92 92 84 79
95 96 95 95 100 100 100 100 100 100 100 100 100 99 98 91 97 100 96 82 77 72 82 84 88 92 94 94 98 93 94 97 95 85 84 93 89 85 85 90 91 89 87
97 96 96 96 97 100 100 100 100 100 100 100 100 99 100 99 97 99 99 83 88 86 75 79 86 89 98 100 100 100 99 94 92 95 94 88 87 89 90 93 98 95 91
96 96 97 96 95 96 100 100 100 100 100 100 100 100 100 100 96 96 100 100 95 89 86 82 80 90 90 89 97 98 97 84 89 93 95 93 99 97 98 90 88 83 90
96 97 97 96 95 95 96 98 100 100 100 100 100 100 100 100 100 99 92 97 99 96 92 91 91 89 92 98 100 100 100 99 96 94 95 92 97 94 94 96 96 98 94
98 98 98 97 95 95 96 96 98 100 100 100 100 100 100 100 100 97 94 95 99 99 93 86 79 80 93 96 97 99 100 99 90 93 83 86 87 86 92 98 99 100 100
97 99 99 96 95 95 95 96 96 97 100 100 100 100 100 100 100 100 95 86 98 100 95 85 75 77 88 92 94 92 92 95 94 96 82 89 90 95 94 99 99 99 100
98 100 99 96 95 95 96 96 96 96 97 100 100 100 100 100 100 100 100 99 99 98 100 99 88 83 88 91 93 91 92 92 98 100 92 94 98 100 100 95 98 100 100
100 99 96 96 96 96 96 95 96 96 96 97 99 100 100 100 100 100 100 100 100 99 99 98 98 98 92 91 96 100 100 100 99 100 100 100 99 100 100 95 100 100 95
96 96 96 95 96 96 95 95 96 96 96 97 97 98 100 100 100 100 100 100 100 100 99 99 99 96 95 98 100 97 100 100 100 100 100 100 100 100 99 99 100 100 99
97 97 96 97 96 95 95 95 96 96 96 96 96 96 97 98 100 100 100 100 100 100 100 100 100 100 96 99 100 100 100 100 100 100 99 100 100 100 100 100 100 100 98
97 97 96 96 95 95 95 95 96 96 95 95 96 96 97 97 98 99 100 100 100 100 100 100 100 100 100 100 99 100 99 98 95 93 98 99 100 100 100 99 99 92 85
96 96 96 96 96 95 96 95 95 95 96 96 96 96 96 97 97 98 99 99 100 100 100 100 100 100 100 100 100 100 100 100 100 100 99 94 97 100 100 100 100 99 100
95 95 96 96 96 95 95 95 95 96 96 96 96 96 96 96 97 97 98 98 99 100 100 100 100 100 100 100 100 100 100 100 100 95 99 98 100 100 100 100 100 100 100
96 96 96 96 96 96 96 95 96 96 95 95 95 96 95 96 96 97 97 97 97 98 98 98 99 100 100 100 100 100 100 100 100 100 100 100 100 89 93 100 100 100 100
97 96 95 96 96 95 96 96 96 96 95 95 95 96 95 96 96 96 96 96 96 96 96 97 97 98 99 99 100 100 100 100 100 100 100 100 100 100 100 100 100 100 100
95 96 95 96 97 95 96 97 94 94 95 94 95 95 96 95 95 96 96 96 96 96 96 96 96 97 97 97 98 100 100 100 100 100 100 100 99 100 100 91 97 100 99
94 92 91 92 95 95 96 93 86 79 80 89 96 95 94 95 95 94 95 96 96 96 96 96 96 96 97 97 98 98 99 99 100 100 100 100 100 100 100 94 89 79 91
Wind_Speed
25 30 32 36 36 36 34 31 26 31 34 35 36 36 34 38 39 35 31 26 25 23 21 23 24 27 25 22 23 27 28 26 21 19 17 15 13 14 14 17 17 17 18
18 27 33 31 33 34 37 37 33 29 35 37 37 36 32 33 33 34 34 32 30 27 24 24 27 29 26 24 26 29 31 27 25 18 16 14 15 15 17 18 18 18 19
12 10 17 23 29 33 39 39 37 32 33 36 37 33 34 35 37 38 37 36 34 31 28 24 26 29 28 28 27 30 33 31 29 25 13 11 11 13 17 21 22 20 19
3 4 5 9 16 23 32 42 42 35 33 38 38 40 42 40 38 36 34 36 36 34 31 27 27 29 30 29 26 29 31 29 31 30 26 15 10 12 8 20 25 22 24
4 5 5 5 8 15 23 34 40 41 36 41 39 38 40 39 38 38 36 33 37 39 35 32 30 29 29 28 27 29 29 26 26 31 32 27 18 14 8 8 17 26 25
11 6 5 5 6 13 15 24 34 38 38 36 39 38 37 39 38 38 37 36 37 37 39 34 33 32 31 30 26 26 31 28 25 27 29 32 27 18 13 10 9 15 18
15 12 9 6 4 5 9 15 27 34 39 34 36 38 37 35 37 37 36 35 37 38 39 39 36 36 34 31 28 26 29 32 30 26 26 27 22 19 16 14 11 9 10
20 16 12 11 8 3 3 8 16 28 36 39 32 35 36 35 34 33 33 33 35 34 35 36 38 37 36 33 33 31 28 30 32 31 30 27 26 23 25 21 16 12 13
26 20 16 13 10 7 2 2 10 22 27 33 38 37 35 35 35 32 30 28 26 29 32 31 35 36 33 32 34 34 32 30 31 33 31 31 28 29 27 26 25 23 19
29 25 21 18 14 10 5 1 4 10 21 25 31 33 37 37 35 32 31 30 27 28 30 30 33 35 37 35 36 36 35 32 29 31 32 33 32 33 29 29 27 27 27
27 25 25 21 19 13 8 4 1 5 10 17 20 29 37 36 35 34 31 30 28 29 28 29 29 31 34 36 38 36 35 35 32 31 31 31 32 31 31 32 33 33 30
28 27 27 27 24 21 16 9 4 1 8 14 16 17 27 34 36 35 32 28 29 29 29 29 30 30 30 31 33 33 36 36 34 33 33 32 33 35 34 34 34 32 35
28 28 30 31 29 26 22 18 10 5 2 9 16 17 20 27 32 32 33 33 30 30 30 30 28 29 30 30 31 31 34 35 37 33 33 32 32 33 34 32 35 35 35
28 30 31 33 30 27 25 22 17 9 4 3 9 15 22 23 27 34 32 31 32 31 31 30 31 29 29 30 29 28 28 29 29 33 32 31 33 32 35 33 36 35 34
30 30 31 34 32 30 27 24 21 17 11 5 4 8 16 21 26 26 32 31 31 30 30 31 28 31 32 31 31 32 31 30 31 33 34 35 32 31 34 30 31 31 32
29 29 31 32 33 31 28 26 23 20 18 12 6 3 8 13 23 30 30 30 31 29 29 31 32 35 34 34 33 34 35 34 35 34 35 35 31 32 28 29 27 27 29
28 30 31 31 31 29 27 26 24 20 19 18 15 8 3 11 14 22 29 25 28 27 27 29 30 30 33 34 35 34 32 34 34 32 34 33 33 29 28 26 23 25 28
28 29 28 29 28 27 25 24 23 21 21 20 20 17 11 4 9 16 24 26 26 26 25 25 26 26 26 26 27 28 28 28 29 30 29 28 26 28 26 24 24 27 30
24 24 24 26 26 26 25 26 24 24 23 24 23 21 18 14 6 9 15 23 26 28 26 26 24 24 25 26 25 25 25 24 24 23 23 22 23 23 23 25 26 26 27
23 24 24 25 25 26 25 27 27 27 27 26 23 21 19 18 16 11 9 12 18 23 27 26 24 25 24 24 24 23 22 22 21 20 19 18 18 18 18 22 24 24 24
22 22 24 27 26 25 26 28 28 28 25 23 22 21 19 19 18 17 16 13 14 15 21 22 23 24 23 24 24 24 23 21 20 19 18 18 17 17 18 19 21 22 22
22 22 24 26 26 26 26 29 27 25 24 24 23 22 21 20 19 17 19 20 20 19 18 19 19 19 21 22 23 25 25 22 20 18 18 18 16 16 18 20 21 23 23
21 20 22 22 24 26 27 27 27 25 25 25 26 23 22 21 21 20 19 19 21 21 18 17 19 17 16 17 18 19 18 18 17 17 16 16 17 16 14 12 13 14 14
19 20 21 22 23 24 25 25 26 25 25 25 27 25 24 22 22 23 23 21 19 20 20 16 14 15 14 13 14 15 15 15 13 12 12 11 11 13 13 13 14 15 15
17 17 19 20 21 21 21 23 24 25 24 24 24 25 23 23 22 22 23 22 21 20 19 19 17 15 14 13 8 8 9 10 10 9 9 9 8 9 10 9 10 9 10
16 16 17 18 20 20 19 19 21 22 23 22 23 23 22 23 22 21 19 19 18 17 17 17 17 16 15 12 5 4 2 5 7 8 7 8 8 7 8 9 9 11 9
Wind_Direction
245 225 221 224 227 222 222 218 216 220 223 221 221 222 224 219 216 214 213 212 209 212 200 200 202 205 209 211 200 197 198 193 195 189 196 202 205 205 202 201 201 201 207
226 229 233 227 228 224 222 223 223 219 223 224 226 224 223 222 220 216 214 208 212 211 207 206 204 205 208 210 204 201 195 199 194 191 193 199 213 216 212 216 216 216 214
230 235 232 232 232 235 229 224 223 220 225 225 222 220 224 222 217 215 213 213 215 212 209 208 209 208 210 211 209 205 204 199 195 194 189 193 210 211 232 224 223 230 228
292 290 261 238 229 230 226 221 220 218 220 225 221 218 221 219 219 221 223 219 215 216 212 209 209 211 210 213 212 207 205 206 204 199 204 197 183 199 212 222 224 226 230
4 330 326 279 241 227 225 216 211 213 210 224 221 219 220 224 225 224 224 224 219 216 213 214 210 212 212 214 215 211 204 207 208 206 207 216 222 216 214 216 217 227 232
357 360 330 290 262 228 226 216 208 203 206 219 220 219 218 219 218 222 222 222 225 218 214 216 210 211 213 214 215 216 214 209 210 214 218 223 223 223 220 217 213 227 239
358 7 360 348 322 239 220 213 204 203 205 207 218 218 220 219 220 226 228 224 216 218 217 217 216 210 216 219 218 218 218 218 217 217 222 227 222 223 223 224 230 233 230
0 7 9 0 353 333 198 203 203 201 206 207 205 217 220 220 222 225 228 226 222 219 220 220 224 215 215 219 221 223 223 221 225 229 229 230 228 224 237 237 233 244 238
358 8 13 10 353 7 32 220 201 204 203 204 211 214 217 221 220 219 222 220 220 222 220 221 216 219 217 223 224 226 225 225 229 230 233 236 238 237 239 240 239 240 241
354 6 18 14 7 20 31 38 222 205 204 204 208 212 215 217 222 217 215 219 220 219 215 218 218 221 218 224 226 225 226 228 231 231 234 235 238 240 239 243 244 243 246
352 359 15 21 21 26 32 46 103 209 204 201 201 204 209 215 216 222 217 215 216 212 213 213 218 224 226 228 229 225 228 228 233 235 233 235 240 243 246 246 248 244 243
357 359 11 24 25 25 28 36 45 127 215 215 207 198 202 212 218 219 222 218 216 214 216 215 219 224 225 226 226 225 227 231 233 230 236 239 243 243 246 248 247 249 247
359 2 11 21 24 24 25 29 32 45 139 209 217 212 202 201 212 218 216 222 219 218 217 217 216 224 224 224 225 228 234 235 236 239 246 245 249 252 254 257 256 250 247
4 3 7 16 24 23 25 27 30 35 58 162 192 202 209 205 201 212 215 220 222 218 218 220 217 225 224 222 224 230 233 234 232 233 241 245 245 250 256 259 254 255 245
2 1 3 12 20 20 23 29 31 33 40 58 186 194 195 200 208 214 215 215 216 211 212 214 223 229 231 233 231 230 234 239 244 245 245 248 251 250 257 254 255 252 240
356 358 6 12 18 18 19 24 29 35 36 40 59 179 204 196 199 209 211 207 206 212 216 221 224 228 232 237 235 235 236 238 243 241 245 247 246 245 248 247 244 234 232
354 359 7 15 17 19 21 23 27 33 42 41 44 57 144 203 199 199 202 205 208 215 224 229 231 230 234 236 235 235 236 236 239 241 241 239 243 241 235 232 227 230 228
0 5 10 17 20 22 26 28 28 34 41 45 44 44 54 107 190 196 197 199 205 212 221 224 224 226 227 226 225 226 229 230 233 234 236 237 236 232 227 228 225 231 227
5 7 14 19 23 26 29 30 29 34 39 42 42 41 42 51 93 173 194 193 198 200 204 207 212 215 217 220 215 216 219 221 223 223 223 224 225 225 226 227 233 230 229
9 10 18 23 27 27 30 31 30 33 36 38 40 43 47 48 59 79 133 177 183 189 191 198 205 208 215 210 210 211 213 211 208 207 209 212 216 215 217 221 221 226 234
10 16 24 26 26 28 30 32 30 31 34 38 43 48 47 55 57 71 89 117 137 164 163 167 180 191 195 197 198 205 208 208 209 210 211 214 218 213 215 218 226 231 229
11 19 23 26 27 29 31 31 28 28 35 40 40 46 49 52 60 62 73 86 99 116 120 118 130 146 167 178 187 196 202 206 206 203 202 207 213 218 226 230 236 236 244
8 16 19 23 28 30 29 29 26 29 35 40 40 41 48 51 55 59 61 66 75 80 79 86 93 99 113 136 152 162 165 172 185 192 197 200 198 207 217 218 225 229 229
7 13 17 20 23 27 28 29 27 31 33 38 37 36 42 44 54 59 57 58 56 56 55 62 60 56 82 104 118 134 141 147 160 171 181 195 207 210 214 219 224 227 230
11 16 17 18 20 22 23 24 25 27 29 36 32 32 37 39 43 50 53 57 57 52 47 48 48 42 38 34 53 125 141 150 162 162 171 187 200 212 213 219 227 229 228
8 14 18 18 19 19 18 19 20 20 22 33 28 32 32 37 39 41 46 55 59 62 59 55 51 45 35 23 11 48 138 185 185 183 184 192 196 209 220 226 234 241 251